Regional Weather Roundup
Issued by NWS

Home | Current Version | Previous Version | Graphics & Text | Print | Product List | Glossary On
Versions: 1 2 3 4 5 6 7 8 9 10 11 12 13 14 15 16 17 18 19 20 21 22 23 24 25 26 27
000
ASUS45 KSLC 200410
RWRUT

UTAH REGIONAL WEATHER ROUNDUP
NATIONAL WEATHER SERVICE SALT LAKE CITY UT
1000 PM MDT THU APR 19 2018

UTZ001>011-023>025-200500-

NORTHERN UTAH

CITY           SKY/WX    TMP DP  RH WIND       PRES   REMARKS
BRIGHAM CITY   PTCLDY    56  22  26 CALM      29.76R
HILL AFB       CLEAR     52  25  34 NW6       29.75S
LOGAN          PTCLDY    54  25  32 E5        29.76R
OGDEN          PTCLDY    52  26  36 N3        29.74S
SALT LAKE CITY MOCLDY    52  32  46 N3        29.75R
TOOELE VALLEY  MOCLDY    45  32  61 E7        29.77R
WENDOVER       MOCLDY    56  22  26 N30G37    29.79S
HEBER CITY     CLOUDY    54  18  24 E15G21    29.74R
WEST JORDAN    MOCLDY    52  26  36 NW10      29.76S

$$

UTZ011>015-024>027-200500-

CENTRAL/NORTHEAST UTAH

CITY           SKY/WX    TMP DP  RH WIND       PRES   REMARKS
PROVO AIRPORT  CLOUDY    56  25  30 NW21      29.72R
MOAB/CANYONLAN CLOUDY    63   3   9 W17       29.61F
DELTA          CLOUDY    43  36  75 S17       29.83R
PRICE          CLOUDY    56   6  13 VRB6      29.68F
RICHFIELD      PTCLDY    45  28  53 N2        29.82R
ROOSEVELT      CLOUDY    61  21  21 S7        29.78S
VERNAL         CLOUDY    59  17  19 E6        29.76S

$$

UTZ013>016-019>022-027-200500-

SOUTHERN UTAH

CITY           SKY/WX    TMP DP  RH WIND       PRES   REMARKS
BRYCE CANYON   MOCLDY    32  18  56 W12       29.82S WCI  23
CEDAR CITY     CLOUDY    41  21  44 CALM      29.81R
MILFORD        CLOUDY    43  37  79 N12       29.82S
ST GEORGE      CLOUDY    55  29  36 NE13      29.80R
HANKSVILLE     PTCLDY    59  12  15 W20       29.68R
KANAB          MOCLDY    46  19  34 W5G25     29.86R
BLANDING         N/A     58   6  12 SW20G26   29.80R

$$

REGIONAL REPORTS     COLORADO/ARIZONA

CITY           SKY/WX    TMP DP  RH WIND       PRES   REMARKS
CRAIG, CO      CLOUDY    55  30  38 SW13      29.84R
GRAND JUNCTION CLOUDY    65  26  23 SE12      29.68F
RIFLE, CO      CLOUDY    61  27  27 S15G29    29.79F
MONTROSE, CO   CLOUDY    57  28  33 E17G35    29.80R
CORTEZ, CO     CLOUDY    67  -1   6 S26G35    29.73S
COLORADO CITY    N/A     48  23  37 W12G18    29.85R
PAGE, AZ       MOCLDY    53  19  26 W10G23    29.77R
GRAND CANYON   NOT AVBL
KINGMAN, AZ    PTCLDY    51  25  36 SW12      29.85R
FLAGSTAFF, AZ  CLOUDY    39  11  31 W14G22    29.88R WCI  31

$$

REGIONAL REPORTS    NEVADA/IDAHO/WYOMING

CITY           SKY/WX    TMP DP  RH WIND       PRES   REMARKS
LAS VEGAS, NV  MOCLDY    58  34  40 W16G25    29.84R
ELY, NY        CLOUDY    42  26  53 NE3       29.87R
ELKO, NV       PTCLDY    43  29  57 E6        29.95R
POCATELLO, ID  MOCLDY    53  24  32 N14       29.87R
BURLEY, ID     MOCLDY    50  29  44 W9        29.87R
FORT BRIDGER,  MOCLDY    49  18  29 SE17      29.90R
EVANSTON, WY   CLOUDY    48  15  26 SE7       29.85R
ROCK SPRINGS,  CLOUDY    46  20  35 E16       29.90R
KEMMERER, WY   CLOUDY    46   7  19 SE7       29.89R

$$




USA.gov is the U.S. government's official web portal to all federal, state and local government web resources and services.